Weather History for Portage Glacier, AK

Change the Weather History Date:

Thursday, January 16, 2014

  Actual Average Record
Temperature  
Mean Temperature 38 °F -  
Max Temperature 44 °F - - ()
Min Temperature 32 °F - - ()
Degree Days  
Heating Degree Days 27    
Moisture  
Dew Point 35 °F    
Average Humidity 94    
Maximum Humidity 100    
Minimum Humidity 79    
Precipitation  
Precipitation 1.14 in - - ()
Sea Level Pressure  
Sea Level Pressure 29.57 in    
Wind  
Wind Speed 13 mph (SE)    
Max Wind Speed 34 mph    
Max Gust Speed 55 mph    
Visibility 5 miles    
Events Rain , Snow    
T = Trace of Precipitation, MM = Missing Value Source: NWS Daily Summary

Daily Weather History Graph

Daily Weather History Graph

Search for Another Location

Airport:

Trip Planner

Search our weather history database for the weather conditions in past years. The results will help you decide how hot, cold, wet, or windy it might be!

Date:

Astronomy

Jan. 16, 2014 Rise Set
Actual Time 9:46 AM AKST 4:24 PM AKST
Civil Twilight 8:52 AM AKST 5:18 PM AKST
Nautical Twilight 7:57 AM AKST 6:13 PM AKST
Astronomical Twilight 7:06 AM AKST 7:05 PM AKST
Moon 5:58 PM AKST (1/16) 9:16 AM AKST (1/16)
Length of Visible Light 8h 25m
Length of Day
6h 37m
Full, 100% of the Moon is Illuminated
Jan 16
Full
Jan 23
Last Quarter
Jan 30
New
Feb 6
First Quarter
Feb 14
Full

Hourly Weather History & Observations

Time (AKST) Temp. Windchill Dew Point Humidity Pressure Visibility Wind Dir Wind Speed Gust Speed Precip Events Conditions
12:46 AM 41.0 °F 32.8 °F 35.1 °F 79% 29.62 in 2.5 mi East 16.1 mph 44.9 mph 0.13 in Rain Rain
12:53 AM 39.9 °F 29.5 °F 35.1 °F 83% 29.62 in 2.5 mi ESE 24.2 mph 39.1 mph 0.16 in Rain Heavy Rain
1:33 AM 39.0 °F 28.3 °F 34.0 °F 82% 29.55 in 3.0 mi ESE 24.2 mph 44.9 mph 0.14 in Rain Rain
1:44 AM 39.0 °F 26.4 °F 34.0 °F 82% 29.55 in 2.5 mi East 34.5 mph 48.3 mph 0.18 in Rain Rain
1:53 AM 37.9 °F 27.9 °F 34.0 °F 86% 29.55 in 2.0 mi East 19.6 mph 55.2 mph 0.22 in Rain Rain
2:09 AM 37.9 °F 26.3 °F 34.0 °F 86% 29.53 in 2.0 mi SE 26.5 mph 47.2 mph 0.05 in Rain Heavy Rain
2:45 AM 36.0 °F 24.7 °F 33.1 °F 89% 29.50 in 3.0 mi ESE 21.9 mph 33.4 mph 0.18 in Rain Rain
3:38 AM 35.1 °F 26.4 °F 33.1 °F 92% 29.43 in 4.0 mi SSE 12.7 mph 34.5 mph 0.13 in Rain Rain
3:53 AM 37.0 °F 26.7 °F 34.0 °F 89% 29.42 in 4.0 mi SE 19.6 mph 34.5 mph 0.15 in Rain Rain
4:53 AM 37.9 °F 29.6 °F 35.1 °F 89% 29.39 in 4.0 mi SE 13.8 mph 26.5 mph 0.10 in Rain Rain
5:53 AM 37.0 °F 28.9 °F 35.1 °F 93% 29.37 in 3.0 mi SE 12.7 mph 26.5 mph 0.09 in Rain Rain
6:24 AM 37.0 °F 31.0 °F 35.1 °F 93% 29.36 in 2.5 mi SSE 8.1 mph 21.9 mph 0.05 in Rain Rain
6:31 AM 36.0 °F 29.0 °F 35.1 °F 97% 29.36 in 3.0 mi SSE 9.2 mph - 0.06 in Rain Rain
6:53 AM 37.0 °F 31.6 °F 35.1 °F 93% 29.39 in 3.0 mi East 6.9 mph - 0.12 in Rain Rain
7:43 AM 32.0 °F 27.5 °F 32.0 °F 100% 29.43 in 1.8 mi West 4.6 mph - 0.13 in Snow Light Snow
7:51 AM 32.0 °F - 32.0 °F 100% 29.43 in 1.2 mi Calm Calm - 0.16 in Snow Light Snow
7:53 AM 32.0 °F - 32.0 °F 100% 29.43 in 1.0 mi Calm Calm - 0.17 in Snow Light Snow
8:04 AM 32.0 °F 28.7 °F 32.0 °F 100% 29.41 in 0.8 mi East 3.5 mph - 0.02 in Snow Light Snow
8:06 AM 32.0 °F 28.7 °F 32.0 °F 100% 29.40 in 1.0 mi SE 3.5 mph - 0.03 in Snow Light Snow
8:34 AM 32.0 °F - 32.0 °F 100% 29.39 in 1.5 mi Calm Calm - 0.05 in Snow Light Snow
8:39 AM 32.0 °F - 32.0 °F 100% 29.39 in 2.0 mi Calm Calm - 0.05 in Snow Light Snow
8:48 AM 32.0 °F 28.7 °F 32.0 °F 100% 29.40 in 7.0 mi West 3.5 mph - 0.05 in Snow Light Snow
8:53 AM 32.0 °F 28.7 °F 32.0 °F 100% 29.42 in 6.0 mi NNW 3.5 mph - 0.05 in   Overcast
9:14 AM 32.0 °F 28.7 °F 32.0 °F 100% 29.43 in 9.0 mi East 3.5 mph - 0.00 in   Overcast
9:24 AM 32.0 °F - 32.0 °F 100% 29.44 in 8.0 mi Calm Calm - 0.00 in Snow Light Snow
9:33 AM 32.0 °F 27.5 °F 32.0 °F 100% 29.46 in 5.0 mi NW 4.6 mph - 0.00 in Snow Light Snow
9:53 AM 32.0 °F 26.4 °F 32.0 °F 100% 29.48 in 10.0 mi SSE 5.8 mph - 0.00 in   Overcast
10:53 AM 33.1 °F 25.5 °F 32.0 °F 96% 29.54 in 10.0 mi SSE 9.2 mph - 0.00 in   Overcast
11:19 AM 33.1 °F 27.7 °F 33.1 °F 100% 29.55 in 10.0 mi Variable 5.8 mph - N/A   Mostly Cloudy
11:29 AM 33.1 °F - 33.1 °F 100% 29.56 in 10.0 mi Calm Calm - N/A   Mostly Cloudy
11:53 AM 32.0 °F - 32.0 °F 100% 29.56 in 10.0 mi Calm Calm - N/A   Mostly Cloudy
12:03 PM 32.0 °F 28.7 °F 32.0 °F 100% 29.56 in 10.0 mi WSW 3.5 mph - N/A   Mostly Cloudy
12:20 PM 32.0 °F - 32.0 °F 100% 29.57 in 10.0 mi Calm Calm - N/A   Scattered Clouds
12:53 PM 34.0 °F - 33.1 °F 96% 29.60 in 10.0 mi Calm Calm - N/A   Overcast
1:53 PM 34.0 °F 28.0 °F 33.1 °F 96% 29.63 in 10.0 mi ESE 6.9 mph - N/A   Mostly Cloudy
2:53 PM 37.9 °F 32.7 °F 35.1 °F 89% 29.64 in 10.0 mi Variable 6.9 mph - N/A   Overcast
3:53 PM 39.9 °F 33.9 °F 37.0 °F 89% 29.68 in 10.0 mi SE 9.2 mph 19.6 mph N/A   Overcast
4:53 PM 37.9 °F 30.9 °F 36.0 °F 93% 29.73 in 10.0 mi SE 10.4 mph 21.9 mph N/A   Overcast
5:20 PM 37.9 °F 29.6 °F 37.0 °F 97% 29.74 in 10.0 mi SSE 13.8 mph 23.0 mph N/A   Overcast
5:53 PM 37.9 °F 30.9 °F 37.0 °F 97% 29.76 in 10.0 mi SE 10.4 mph 21.9 mph N/A   Overcast
6:53 PM 37.9 °F 29.2 °F 37.9 °F 100% 29.75 in 5.0 mi SSE 15.0 mph 26.5 mph N/A   Overcast
7:12 PM 37.0 °F 28.9 °F 37.0 °F 100% 29.75 in 4.0 mi SSE 12.7 mph 23.0 mph N/A   Overcast
7:53 PM 37.9 °F 29.6 °F 37.0 °F 97% 29.77 in 3.0 mi SE 13.8 mph 21.9 mph 0.00 in Rain Light Rain
8:01 PM 37.9 °F 30.9 °F 37.9 °F 100% 29.77 in 3.0 mi SSE 10.4 mph 19.6 mph 0.00 in   Overcast
8:38 PM 42.1 °F 33.6 °F 39.0 °F 89% 29.77 in 4.0 mi East 18.4 mph 31.1 mph 0.00 in   Overcast
8:53 PM 42.1 °F 36.6 °F 39.0 °F 89% 29.76 in 4.0 mi SE 9.2 mph 31.1 mph 0.00 in Rain Light Rain
9:20 PM 39.9 °F 31.4 °F 39.0 °F 97% 29.76 in 2.5 mi SE 16.1 mph 31.1 mph 0.01 in Rain Light Rain
9:27 PM 39.9 °F 32.1 °F 39.0 °F 97% 29.74 in 3.0 mi SE 13.8 mph 27.6 mph 0.01 in Rain Light Rain
9:50 PM 39.2 °F 30.2 °F 39.2 °F 100% 29.75 in 3.0 mi SE 17.3 mph 28.8 mph 0.01 in Rain Light Rain
9:53 PM 41.0 °F 33.5 °F 39.9 °F 96% 29.75 in 3.0 mi SSE 13.8 mph 28.8 mph 0.01 in Rain Light Rain
10:07 PM 42.1 °F 34.9 °F 39.9 °F 92% 29.74 in 2.5 mi SSE 13.8 mph 29.9 mph 0.01 in Rain Light Rain
10:53 PM 43.0 °F 34.0 °F 39.9 °F 89% 29.74 in 2.5 mi ESE 21.9 mph 34.5 mph 0.04 in Rain Light Rain
11:11 PM 43.0 °F 35.4 °F 39.9 °F 89% 29.74 in 3.0 mi SE 16.1 mph 38.0 mph 0.01 in Rain Light Rain
11:26 PM 44.1 °F 36.2 °F 39.9 °F 85% 29.72 in 2.0 mi ESE 18.4 mph 40.3 mph 0.02 in Rain Light Rain
11:53 PM 44.1 °F 35.7 °F 39.9 °F 85% 29.72 in 2.5 mi ESE 20.7 mph 32.2 mph 0.03 in Rain Light Rain